Flag for U.S.A. Weather past 2 weeks in Alexandria, Virginia, U.S.A.

Now
66 °F

Passing clouds.


Feels Like: 66 °F
Forecast: 49 / 66 °F
Wind: 15 mph from West

Location: Reagan National Airport

Current Time: Oct 26, 2014 at 4:37:20 AM

Latest Report: Oct 26, 2014 at 3:52 AM


Visibility: 10 mi

Pressure: 29.70 "Hg

Humidity: 40%

Dew point: 41 °F

Location of AlexandriaLocation

Historic Weather in Alexandria — Graph

°F

Alexandria temperature yesterday

Maximum temperature yesterday: 74 °F (at 2:52 PM)
Minimum temperature yesterday: 50 °F (at 6:52 AM)
Average temperature yesterday: 61 °F

Past Weeks' High & Low Weather Summary

 TemperatureHumidityPressure
High81 °F (Oct 14, 3:52 PM)94% (Oct 13, 10:59 PM)30.30 "Hg (Oct 13, 10:59 PM)
Low46 °F (Oct 20, 6:52 AM)28% (Oct 24, 4:52 PM)29.64 "Hg (Oct 18, 4:52 AM)
Average62 °F65%29.95 "Hg
* Reported Oct 11 2:52 AM — Oct 26 2:52 AM, Alexandria, Weather by CustomWeather, © 2014

Note: Actual official high and low records may vary slightly from our data, if they occured in-between our weather recording intervals... More about our weather records

Advertising

Alexandria weather history for previous 24 hours

 ConditionsComfort  
Time TempWeatherWind HumidityBarometerVisibility
2:52 AM
Oct 26
57 °FPassing clouds.9 mph64%29.69 "Hg10 mi
1:52 AM58 °FPassing clouds.9 mph60%29.69 "Hg10 mi
12:52 AM59 °FClear.12 mph67%29.69 "Hg10 mi
11:52 PM
Oct 25
59 °FClear.6 mph67%29.71 "Hg10 mi
10:52 PM57 °FClear.7 mph64%29.73 "Hg10 mi
9:52 PM62 °FClear.3 mph50%29.74 "Hg10 mi
8:52 PM61 °FPassing clouds.3 mph60%29.74 "Hg10 mi
7:52 PM62 °FPassing clouds.8 mph48%29.75 "Hg10 mi
6:52 PM66 °FPassing clouds.8 mph39%29.75 "Hg10 mi
5:52 PM69 °FPassing clouds.13 mph33%29.75 "Hg10 mi
4:52 PM73 °FSunny.10 mph29%29.78 "Hg10 mi
3:52 PM74 °FScattered clouds.14 mph29%29.80 "Hg10 mi
2:52 PM74 °FPassing clouds.10 mph32%29.82 "Hg10 mi
1:52 PM73 °FPassing clouds.12 mph34%29.86 "Hg10 mi
12:52 PM72 °FPassing clouds.8 mph34%29.89 "Hg10 mi
11:52 AM66 °FPassing clouds.12 mph49%29.92 "Hg10 mi
10:52 AM62 °FPassing clouds.6 mph56%29.96 "Hg10 mi
9:52 AM59 °FPassing clouds.5 mph60%29.98 "Hg10 mi
8:52 AM54 °FSunny.5 mph69%29.97 "Hg10 mi
7:52 AM50 °FClear.3 mph71%29.97 "Hg10 mi
6:52 AM50 °FClear.3 mph74%29.96 "Hg10 mi
5:52 AM51 °FClear.3 mph61%29.95 "Hg10 mi
4:52 AM52 °FClear.5 mph59%29.95 "Hg10 mi
Weather by CustomWeather, © 2014

See weather overviewHow to use our weather pages